Terminal Aerodrome Forecast
Issued by NWS

Home | Current Version | Previous Version | Text Only | Print | Product List | Glossary On
Versions: 1 2 3 4 5 6 7 8 9 10 11 12
000
FTUS44 KEPZ 211721
TAFTCS
TAF
KTCS 211721Z 2118/2218 02010G16KT P6SM SCT250
     FM220200 33007KT P6SM BKN250
     FM221200 27005KT P6SM SCT250=

USA.gov is the U.S. government's official web portal to all federal, state and local government web resources and services.